Weather in Swidnica

Poland     50°50′32″N   16°29′22″E
temp.,
°C
wind,
m/s
gust,
m/s
humid.,
%
clouds,
%
prec.,
mm/h
press.,
hPa
HPBL,
m
26 july, mon
mon2623:00+17se228823 0.1 101125
02:00+16s118817 1.0 101111
05:00+16sw2292100 0.3 101125
08:00+19nw128453 0.3 1012272
11:00+24nw336495 0.0 1012943
14:00+25w2260100 0.9 10121305
17:00+25wnw226182 1.1 1012991
20:00+22wnw117455 1.6 101111
27 july, tue
tue2723:00+18w2289100 2.3 101218
02:00+17sse1195100 6.1 101319
05:00+17w2293100 0.4 101341
08:00+19sw2288100 0.4 1014137
11:00+23wsw2267100 0.7 10151041
14:00+24wsw33615 2.1 10141280
17:00+26wsw245018 0.2 10141806
20:00+21sw3471100 0.2 101464
28 july, wed
wed2823:00+20sw2269100 0.0 101524
02:00+18sw227381 0.0 101518
05:00+18sw337298 0.0 101534
08:00+21ssw246898 0.0 1015213
11:00+19sw2275100 0.0 101581
14:00+22ssw116022 0.0 1014249
17:00+25n4352100 0.0 10131125
20:00+16nw3794100 3.5 1015324
29 july, thu
thu2923:00+15ssw22920 0.3 101615
02:00+14ssw22958 0.3 101636
05:00+13sw22957 0.0 101636
08:00+17ssw23841 0.0 1016222
11:00+22sw23600 0.0 1016921
14:00+25sw34505 0.0 10141472
17:00+25sw575012 0.0 10131674
20:00+21sse22715 0.0 101218
30 july, fri
fri3023:00+18ssw228768 0.9 101122
02:00+17ssw3393100 4.8 101060
05:00+17sw2492100 1.4 101082
08:00+19wsw51286100 2.4 1010882
11:00+22wsw6971100 0.4 10091084
14:00+22sw6874100 0.9 1009838
17:00+24wsw476026 0.4 10081511
20:00+20sw2372100 0.4 100843